Location: ????????
(55.0559°N, 39.1270°E)
Time: 18:19:23
(UTC+00:00)

CZ-2C R/B - Pass Details

Date: 15 November 2025
Orbit: 664 x 773 km, 98.4° (Epoch: 14 December)

Event Time Altitude Azimuth Distance (km) Brightness Sun altitude
Rises 03:12:19 0° 10° (N) 3,203 5.7 -14.5°
Reaches altitude 10° 03:14:55 10° 358° (N) 2,291 4.8 -14.1°
Maximum altitude 03:19:01 26° 304° (NW) 1,488 3.5 -13.6°
Enters shadow 03:21:47 16° 261° (W) 1,905 4.0 -13.2°
